Location: Ku?niki
(51.4449°N, 17.8974°E)
Time: 17:26:49
(UTC+00:00)

Cosmos 2285 Rocket - Pass Details

Date: 18 September 2020
Orbit: 970 x 1000 km, 74.0° (Epoch: 22 October)

Event Time Altitude Azimuth Distance (km) Brightness Sun altitude
Rises 19:33:39 0° 202° (SSW) 3,654 6.9 -23.8°
Reaches altitude 10° 19:36:10 10° 202° (SSW) 2,713 6.2 -24.1°
Maximum altitude 19:42:28 88° 114° (ESE) 985 3.9 -24.9°
Drops below altitude 10° 19:48:51 10° 25° (NNE) 2,749 6.5 -25.7°
Sets 19:51:25 0° 26° (NNE) 3,705 7.2 -26.0°
